User: anonymous
Location: Marseilles
(40.7010°N, 83.3930°W)
Time: 08:14:36
(UTC-04:00)
Language:

Cosmos 1459 Rocket - Orbit

View from above orbital plane
View from above orbital plane
View from above satellite
View from above satellite

Ground track
Ground track

The orbit data is extracted from the following two-line orbital elements,

1 14059U 83042B   14273.47283260  .00000040  00000-0  23698-4 0  4042
2 14059 082.9696 077.2083 0043284 167.5915 244.9758 13.78463098579260
Epoch (UTC): 30 September 2014 11:20:52
Eccentricity: 0.0043284
inclination: 82.9696°
perigee height: 937 km
apogee height: 1001 km
right ascension of ascending node: 77.2083°
argument of perigee: 167.5915°
revolutions per day: 13.78463098
mean anomaly at epoch: 244.9758°
orbit number at epoch: 57926

The dashed part of the orbit path shows where the satellite is in the earth's shadow,  

DLR